TimeCDT,TemperatureF,Dew PointF,Humidity,Sea Level PressureIn,VisibilityMPH,Wind Direction,Wind SpeedMPH,Gust SpeedMPH,PrecipitationIn,Events,Conditions,WindDirDegrees,DateUTC
12:15 AM,51.8,41.0,67,29.68,10.0,ESE,10.4,16.1,N/A,,Clear,110,2012-10-21 05:15:00
12:35 AM,51.8,41.0,67,29.68,10.0,ESE,12.7,17.3,N/A,,Clear,120,2012-10-21 05:35:00
12:55 AM,51.8,41.0,67,29.67,10.0,ESE,11.5,-,N/A,,Clear,120,2012-10-21 05:55:00
1:15 AM,51.8,39.2,62,29.67,10.0,SE,13.8,18.4,N/A,,Clear,130,2012-10-21 06:15:00
1:35 AM,51.8,41.0,67,29.66,10.0,ESE,11.5,-,N/A,,Clear,120,2012-10-21 06:35:00
1:55 AM,50.0,39.2,66,29.66,10.0,SE,10.4,-,N/A,,Clear,130,2012-10-21 06:55:00
2:15 AM,50.0,41.0,71,29.66,10.0,SE,13.8,18.4,N/A,,Clear,140,2012-10-21 07:15:00
2:35 AM,50.0,39.2,66,29.65,10.0,SE,16.1,20.7,N/A,,Clear,130,2012-10-21 07:35:00
2:55 AM,48.2,39.2,71,29.65,10.0,SE,16.1,-,N/A,,Clear,130,2012-10-21 07:55:00
3:15 AM,48.2,39.2,71,29.65,10.0,SE,16.1,23.0,N/A,,Clear,130,2012-10-21 08:15:00
3:35 AM,48.2,39.2,71,29.64,10.0,ESE,12.7,-,N/A,,Clear,120,2012-10-21 08:35:00
3:55 AM,48.2,39.2,71,29.64,10.0,SE,15.0,23.0,N/A,,Clear,130,2012-10-21 08:55:00
4:15 AM,48.2,39.2,71,29.64,10.0,SE,15.0,-,N/A,,Clear,130,2012-10-21 09:15:00
4:35 AM,46.4,39.2,76,29.63,10.0,SE,11.5,-,N/A,,Clear,130,2012-10-21 09:35:00
4:55 AM,46.4,39.2,76,29.63,10.0,SE,10.4,-,N/A,,Clear,130,2012-10-21 09:55:00
5:15 AM,46.4,39.2,76,29.63,10.0,SE,10.4,-,N/A,,Clear,130,2012-10-21 10:15:00
5:35 AM,46.4,39.2,76,29.64,10.0,SE,8.1,-,N/A,,Clear,140,2012-10-21 10:35:00
5:55 AM,44.6,39.2,81,29.64,10.0,ESE,8.1,-,N/A,,Clear,120,2012-10-21 10:55:00
6:15 AM,46.4,39.2,76,29.65,10.0,SE,9.2,-,N/A,,Clear,130,2012-10-21 11:15:00
6:35 AM,42.8,39.2,87,29.64,10.0,ESE,8.1,-,N/A,,Clear,120,2012-10-21 11:35:00
6:55 AM,44.6,39.2,81,29.65,10.0,SE,6.9,-,N/A,,Clear,130,2012-10-21 11:55:00
7:15 AM,44.6,39.2,81,29.65,10.0,ESE,10.4,-,N/A,,Clear,120,2012-10-21 12:15:00
7:35 AM,44.6,39.2,81,29.65,10.0,ESE,6.9,-,N/A,,Clear,110,2012-10-21 12:35:00
7:55 AM,42.8,39.2,87,29.66,10.0,ESE,6.9,-,N/A,,Clear,110,2012-10-21 12:55:00
8:15 AM,42.8,39.2,87,29.66,10.0,ESE,5.8,-,N/A,,Clear,120,2012-10-21 13:15:00
8:35 AM,44.6,39.2,81,29.68,10.0,ESE,3.5,-,N/A,,Clear,120,2012-10-21 13:35:00
8:55 AM,44.6,41.0,87,29.68,10.0,Calm,Calm,-,N/A,,Clear,0,2012-10-21 13:55:00
9:15 AM,46.4,41.0,81,29.70,10.0,Calm,Calm,-,N/A,,Clear,0,2012-10-21 14:15:00
9:35 AM,48.2,42.8,82,29.70,10.0,SSE,3.5,-,N/A,,Clear,150,2012-10-21 14:35:00
9:55 AM,51.8,42.8,71,29.71,10.0,SSW,4.6,-,N/A,,Clear,200,2012-10-21 14:55:00
10:15 AM,55.4,41.0,58,29.72,10.0,SW,9.2,-,N/A,,Clear,230,2012-10-21 15:15:00
10:35 AM,55.4,41.0,58,29.73,10.0,West,6.9,-,N/A,,Clear,260,2012-10-21 15:35:00
10:55 AM,59.0,37.4,45,29.73,10.0,West,11.5,-,N/A,,Clear,270,2012-10-21 15:55:00
11:15 AM,59.0,39.2,48,29.75,10.0,West,15.0,-,N/A,,Clear,280,2012-10-21 16:15:00
11:35 AM,60.8,39.2,45,29.75,10.0,West,12.7,-,N/A,,Clear,270,2012-10-21 16:35:00
11:55 AM,60.8,37.4,42,29.76,10.0,WNW,12.7,-,N/A,,Clear,290,2012-10-21 16:55:00
12:15 PM,60.8,39.2,45,29.76,10.0,WNW,11.5,-,N/A,,Clear,300,2012-10-21 17:15:00
12:35 PM,60.8,39.2,45,29.77,10.0,WNW,10.4,-,N/A,,Clear,290,2012-10-21 17:35:00
12:55 PM,62.6,39.2,42,29.77,10.0,NW,11.5,16.1,N/A,,Clear,320,2012-10-21 17:55:00
1:15 PM,62.6,39.2,42,29.77,10.0,NW,11.5,-,N/A,,Clear,310,2012-10-21 18:15:00
1:35 PM,62.6,39.2,42,29.77,10.0,NW,10.4,-,N/A,,Clear,310,2012-10-21 18:35:00
1:55 PM,64.4,41.0,42,29.77,10.0,WNW,9.2,-,N/A,,Clear,300,2012-10-21 18:55:00
2:15 PM,64.4,39.2,40,29.76,10.0,WNW,15.0,-,N/A,,Clear,300,2012-10-21 19:15:00
2:35 PM,64.4,42.8,45,29.76,10.0,NW,16.1,-,N/A,,Clear,320,2012-10-21 19:35:00
2:55 PM,64.4,42.8,45,29.75,10.0,NW,15.0,-,N/A,,Clear,320,2012-10-21 19:55:00
3:15 PM,66.2,42.8,43,29.76,10.0,NNW,10.4,-,N/A,,Clear,330,2012-10-21 20:15:00
3:35 PM,66.2,42.8,43,29.77,10.0,North,10.4,-,N/A,,Clear,360,2012-10-21 20:35:00
3:55 PM,66.2,42.8,43,29.77,10.0,North,12.7,-,N/A,,Clear,350,2012-10-21 20:55:00
4:15 PM,66.2,42.8,43,29.77,10.0,North,11.5,-,N/A,,Clear,350,2012-10-21 21:15:00
4:35 PM,66.2,42.8,43,29.77,10.0,NNW,12.7,-,N/A,,Clear,340,2012-10-21 21:35:00
4:55 PM,66.2,44.6,46,29.77,10.0,NNW,12.7,-,N/A,,Clear,340,2012-10-21 21:55:00
5:15 PM,66.2,44.6,46,29.78,10.0,North,11.5,-,N/A,,Clear,350,2012-10-21 22:15:00
5:35 PM,64.4,44.6,49,29.79,10.0,North,10.4,-,N/A,,Clear,350,2012-10-21 22:35:00
5:55 PM,64.4,44.6,49,29.79,10.0,North,10.4,-,N/A,,Clear,360,2012-10-21 22:55:00
6:15 PM,62.6,44.6,52,29.80,10.0,North,10.4,-,N/A,,Clear,350,2012-10-21 23:15:00
6:35 PM,60.8,44.6,55,29.81,10.0,NNW,9.2,-,N/A,,Clear,340,2012-10-21 23:35:00
6:55 PM,59.0,44.6,59,29.82,10.0,North,9.2,-,N/A,,Clear,360,2012-10-21 23:55:00
7:15 PM,59.0,44.6,59,29.83,10.0,North,10.4,-,N/A,,Clear,360,2012-10-22 00:15:00
7:35 PM,57.2,44.6,63,29.84,10.0,North,11.5,-,N/A,,Clear,350,2012-10-22 00:35:00
7:55 PM,57.2,44.6,63,29.85,10.0,North,12.7,-,N/A,,Clear,350,2012-10-22 00:55:00
8:15 PM,55.4,44.6,67,29.86,10.0,North,10.4,-,N/A,,Clear,350,2012-10-22 01:15:00
8:35 PM,53.6,44.6,72,29.87,10.0,North,16.1,-,N/A,,Clear,350,2012-10-22 01:35:00
8:55 PM,53.6,44.6,72,29.87,10.0,North,17.3,-,N/A,,Clear,360,2012-10-22 01:55:00
9:15 PM,53.6,44.6,72,29.88,10.0,North,17.3,25.3,N/A,,Scattered Clouds,360,2012-10-22 02:15:00
9:35 PM,51.8,44.6,76,29.88,10.0,North,17.3,26.5,N/A,,Mostly Cloudy,360,2012-10-22 02:35:00
9:55 PM,51.8,42.8,71,29.89,10.0,North,16.1,23.0,N/A,,Mostly Cloudy,10,2012-10-22 02:55:00
10:15 PM,51.8,42.8,71,29.89,10.0,North,18.4,21.9,N/A,,Mostly Cloudy,10,2012-10-22 03:15:00
10:35 PM,48.2,42.8,82,29.90,10.0,North,11.5,18.4,N/A,,Partly Cloudy,10,2012-10-22 03:35:00
10:55 PM,48.2,42.8,82,29.90,10.0,NNE,11.5,-,N/A,,Clear,20,2012-10-22 03:55:00
11:15 PM,48.2,42.8,82,29.90,10.0,NNE,10.4,-,N/A,,Clear,20,2012-10-22 04:15:00
11:35 PM,48.2,42.8,82,29.90,10.0,North,9.2,-,N/A,,Clear,10,2012-10-22 04:35:00
11:55 PM,48.2,44.6,87,29.89,10.0,North,9.2,-,N/A,,Clear,10,2012-10-22 04:55:00